Location: Glums�
(55.3568°N, 11.6856°E)
Time: 10:50:59
(UTC+00:00)

STARLINK 1040 - Pass Details

Date: 07 June 2020
Orbit: 279 x 281 km, 53.0° (Epoch: 05 July)

Event Time Altitude Azimuth Distance (km) Brightness Sun altitude
Exits shadow 00:22:21 17° 224° (SW) 858 4.1 -10.4°
Maximum altitude 00:23:56 34° 165° (SSE) 503 3.0 -10.4°
Drops below altitude 10° 00:26:18 10° 97° (E) 1,144 5.4 -10.3°
Sets 00:28:13 0° 88° (E) 1,931 6.7 -10.2°
